Weather in Nablus

Palestinian Territory     32°12′50″N   35°16′16″E
temp.,
°C
wind,
m/s
gust,
m/s
humid.,
%
clouds,
%
prec.,
mm/h
press.,
hPa
HPBL,
m
9 march, tue
tue923:00+9sw22930 0.0 101822
02:00+8ssw12940 0.0 101722
05:00+7s11930 0.0 101722
08:00+13se11580 0.0 1018138
11:00+17nnw02400 0.0 1017782
14:00+19e214035 0.0 1015788
17:00+17se226413 0.0 101546
20:00+15ese345757 0.0 101530
10 march, wed
wed1023:00+16e444797 0.0 101434
02:00+15e235198 0.0 101423
05:00+15ese4445100 0.0 101332
08:00+19se564574 0.0 1013114
11:00+25sse583223 0.0 1012730
14:00+27sw8122612 0.0 10091659
17:00+22ssw343413 0.0 100836
20:00+18wsw673749 0.0 101091
11 march, thu
thu1123:00+15sw69522 0.0 1010138
02:00+13sw6106823 0.0 1010172
05:00+12sw6108025 0.0 1011214
08:00+14sw8127926 0.0 1012489
11:00+18wsw10126416 0.0 1011832
14:00+17wsw11147452 0.0 1011749
17:00+14w81189100 0.0 1011683
20:00+13wsw699594 0.1 1012449
12 march, fri
fri1223:00+13wsw8119599 0.2 1011617
02:00+12wsw12169498 1.2 1009910
05:00+11w14198395 2.8 10101133
08:00+11w13168382 3.4 10121188
11:00+13wnw13156962 0.3 10131329
14:00+13nw9116758 0.4 10131117
17:00+11nw79701 0.0 1015841
20:00+8nw33741 0.0 101765
13 march, sat
sat1323:00+7wnw33700 0.0 101845
02:00+6w22760 0.0 101826
05:00+5w01810 0.0 101922
08:00+10e11660 0.0 1021305
11:00+13ene33560 0.0 1020602
14:00+16ne33470 0.0 1018672
17:00+14nne23650 0.0 1017191
20:00+9n11810 0.0 101822